OneWeb SL0614

operational
NORAD ID: 55156 Int'l Des: 2023-004 Owner: ONEWEBN Country: UK Constellation: oneweb
LEOCIRCULARPOLARONEWEB_TYPE

About OneWeb SL0614

Description loading...

Live Position

Loading 3D Globe...

Upcoming Passes

Altitude History

Altitude vs Time

uPlot chart will show altitude changes over time

Two-Line Element Set

1 55156U 23004S 25350.72959048 .00000350 00000-0 95105-3 0 9991
2 55156 87.8850 57.4178 0001775 114.0884 246.0430 13.11413676141927
Epoch: Dec 16, 2025 • Age: 14 hours

Current Status

Altitude 1229.4 km
Velocity 7.24 km/s
Sub-Earth Point -30.82°S, 41.4°E
Launch Date Jan 10, 2023
Age 2.9 years
Type internet

Technical Details

Classification Payload
Mass 148.00 kg
Dry Mass 140.00 kg
Total Mass 148.00 kg
Length 1.30 m
Diameter 1.00 m
Span 5.00 m
Shape Trapezoid+2 pan
Manufacturer ONEWUS
Bus Type ARROW
Phase Status In Orbit
Owner/State ONEWEBN/UK

Large Constellations

Loading constellations...